FW4298 Weather Reports


time (UTC)temp
F
wind
direction
speed
knots
gust
knots
rain 1hr
in
rain 24hr
in
rain mn
in
humidity
%
barometer
mb
20260506222009 60 330 4.3 11.3 0.00 0.00 0.00 88 1014.1
20260506221509 60 341 5.2 11.3 0.00 0.00 0.00 88 1014.2
20260506221009 60 351 4.3 11.3 0.00 0.00 0.00 88 1014.2
20260506220509 60 10 4.3 10.4 0.00 0.00 0.00 88 1014.3
20260506220009 60 338 5.2 10.4 0.00 0.00 0.00 88 1014.4
20260506215509 60 345 5.2 10.4 0.00 0.00 0.00 89 1014.5
20260506215010 60 44 5.2 10.4 0.00 0.00 0.00 88 1014.5
20260506214508 60 348 5.2 10.4 0.00 0.00 0.00 88 1014.4
20260506214008 60 341 5.2 10.4 0.00 0.00 0.00 89 1014.4
20260506213507 59 350 5.2 10.4 0.00 0.00 0.00 89 1014.3
20260506213007 59 329 5.2 10.4 0.00 0.00 0.00 88 1014.4
20260506212736 59 301 5.2 10.4 0.00 0.00 0.00 88 1014.5
20260506212007 60 323 5.2 10.4 0.00 0.00 0.00 88 1014.5
20260506211506 60 22 4.3 10.4 0.00 0.00 0.00 88 1014.5
20260506211003 60 12 5.2 10.4 0.00 0.00 0.00 88 1014.6
20260506210457 60 289 5.2 10.4 0.00 0.00 0.00 87 1014.6
20260506205951 60 287 5.2 10.4 0.00 0.00 0.00 87 1014.6
20260506205705 60 332 5.2 10.4 0.00 0.00 0.00 87 1014.7
20260506205218 60 328 4.3 10.4 0.00 0.00 0.00 87 1014.9
20260506204709 60 348 5.2 9.6 0.00 0.00 0.00 87 1014.8
20260506204212 60 348 5.2 9.6 0.00 0.00 0.00 87 1014.7
20260506203706 60 12 5.2 12.2 0.00 0.00 0.00 87 1014.6
20260506202943 60 338 5.2 12.2 0.00 0.00 0.00 88 1014.6
20260506202927 60 317 6.1 12.2 0.00 0.00 0.00 87 1014.8
20260506202209 60 344 6.1 13.0 0.00 0.00 0.00 87 1014.8
20260506201443 60 315 5.2 13.0 0.00 0.00 0.00 88 1014.8
20260506200942 60 325 5.2 13.9 0.00 0.00 0.00 88 1014.8
20260506200443 60 323 5.2 13.9 0.00 0.00 0.00 87 1014.7
20260506195943 60 314 5.2 13.9 0.00 0.00 0.00 87 1014.8
20260506195705 60 313 6.1 13.9 0.00 0.00 0.00 87 1014.6
20260506194943 61 333 7.0 14.8 0.00 0.00 0.00 86 1014.7
20260506194442 61 342 7.0 14.8 0.00 0.00 0.00 86 1014.8
20260506194201 61 315 7.0 13.9 0.00 0.00 0.00 86 1014.7
20260506193443 62 308 6.1 13.0 0.00 0.00 0.00 86 1014.6
20260506192939 62 9 5.2 11.3 0.00 0.00 0.00 86 1014.6
20260506192438 62 341 5.2 12.2 0.00 0.00 0.00 85 1014.8
20260506191939 63 351 5.2 12.2 0.00 0.00 0.00 85 1014.8
20260506191439 63 309 6.1 13.0 0.00 0.00 0.00 86 1014.7
20260506191206 63 294 6.1 13.0 0.00 0.00 0.00 85 1014.7
20260506190439 63 355 6.1 12.2 0.00 0.00 0.00 86 1014.8
20260506185939 63 342 6.1 12.2 0.00 0.00 0.00 86 1014.9
20260506185438 63 304 7.0 14.8 0.00 0.00 0.00 86 1014.8
20260506184938 63 265 6.1 14.8 0.00 0.00 0.00 86 1014.7
20260506184439 64 308 6.1 12.2 0.00 0.00 0.00 86 1014.7
20260506183937 64 337 5.2 11.3 0.00 0.00 0.00 87 1014.6
20260506183437 64 302 5.2 13.0 0.00 0.00 0.00 86 1014.6
20260506182936 65 27 6.1 13.0 0.00 0.00 0.00 86 1014.5
20260506182437 66 309 6.1 13.0 0.00 0.00 0.00 85 1014.7
20260506181936 67 351 7.0 12.2 0.00 0.00 0.00 84 1014.6
20260506181437 68 327 7.0 12.2 0.00 0.00 0.00 83 1014.6
20260506180937 69 11 6.1 12.2 0.00 0.00 0.00 81 1014.6
20260506180437 71 0 6.1 11.3 0.00 0.00 0.00 81 1014.4
20260506180157 71 295 6.1 11.3 0.00 0.00 0.00 81 1014.4
20260506175655 72 327 4.3 11.3 0.00 0.00 0.00 82 1014.1
20260506174937 71 340 3.5 7.0 0.00 0.00 0.00 82 1014.1
20260506174435 71 19 3.5 7.8 0.00 0.00 0.00 82 1014.0
20260506173934 70 23 3.5 7.8 0.00 0.00 0.00 82 1014.0
20260506173435 69 0 2.6 7.0 0.00 0.00 0.00 85 1014.0
20260506173153 68 0 2.6 7.0 0.00 0.00 0.00 85 1013.7
20260506172434 68 42 2.6 7.0 0.00 0.00 0.00 86 1013.7
20260506171934 67 88 3.5 7.0 0.00 0.00 0.00 87 1013.5
20260506171435 66 18 3.5 7.0 0.00 0.00 0.00 88 1013.5
20260506170933 66 9 2.6 7.0 0.00 0.00 0.00 88 1013.5
20260506170434 65 53 2.6 7.0 0.00 0.00 0.00 88 1013.6
20260506165935 65 0 2.6 8.7 0.00 0.00 0.00 89 1013.7
20260506165433 65 84 3.5 8.7 0.00 0.00 0.00 89 1013.6
20260506164935 64 15 3.5 7.0 0.00 0.00 0.00 90 1013.6
20260506164434 64 28 3.5 7.8 0.00 0.00 0.00 92 1013.6
20260506164157 63 80 3.5 7.8 0.00 0.00 0.00 92 1013.7
20260506163438 62 57 2.6 7.0 0.00 0.00 0.00 95 1014.0
20260506163434 62 10 3.5 7.0 0.00 0.00 0.00 95 1013.7
20260506162434 61 44 2.6 7.8 0.00 0.00 0.00 96 1014.1
20260506161933 60 75 2.6 7.8 0.00 0.00 0.00 96 1014.5
20260506161434 60 47 2.6 7.8 0.00 0.00 0.00 96 1014.7
20260506161204 59 13 3.5 10.4 0.00 0.00 0.00 95 1014.1
20260506160713 59 14 3.5 10.4 0.00 0.00 0.00 95 1014.1
20260506155935 59 49 4.3 10.4 0.00 0.00 0.00 94 1014.7
20260506155434 59 346 4.3 10.4 0.00 0.00 0.00 94 1015.1
20260506154934 60 0 4.3 11.3 0.00 0.00 0.00 94 1015.1
20260506154434 60 340 5.2 11.3 0.00 0.00 0.00 94 1014.9
20260506154205 60 9 5.2 11.3 0.00 0.00 0.00 94 1015.2
20260506153435 60 19 5.2 11.3 0.00 0.00 0.00 94 1015.1
20260506152934 61 306 5.2 11.3 0.00 0.00 0.00 94 1015.3
20260506152434 62 27 6.1 13.0 0.00 0.00 0.00 94 1015.2
20260506151935 62 335 6.1 13.9 0.00 0.00 0.00 94 1015.1
20260506151434 62 330 6.1 13.9 0.00 0.00 0.00 94 1015.0
20260506150934 63 341 6.1 15.6 0.00 0.00 0.00 95 1015.7
20260506150434 63 277 5.2 15.6 0.00 0.00 0.00 95 1015.2
20260506145934 63 15 4.3 14.8 0.00 0.00 0.00 95 1014.6
20260506145435 63 331 5.2 13.9 0.00 0.00 0.00 95 1014.0
20260506144934 63 350 7.0 11.3 0.00 0.00 0.00 95 1013.8
20260506144435 64 342 7.0 13.9 0.00 0.00 0.00 95 1013.7
20260506143934 64 11 5.2 13.9 0.00 0.00 0.00 94 1013.5
20260506143435 64 351 5.2 13.0 0.00 0.00 0.00 95 1013.4
20260506142930 64 10 6.1 13.0 0.00 0.00 0.00 94 1013.5
20260506142424 65 336 5.2 12.2 0.00 0.00 0.00 95 1013.6
20260506142146 65 9 4.3 12.2 0.00 0.00 0.00 95 1013.2
20260506141412 66 14 4.3 10.4 0.00 0.00 0.00 95 1012.8
20260506140910 66 15 4.3 10.4 0.00 0.00 0.00 95 1012.7
20260506140410 66 44 4.3 10.4 0.00 0.00 0.00 95 1012.6
20260506135910 67 348 4.3 10.4 0.00 0.00 0.00 95 1012.5
20260506135410 67 347 5.2 13.9 0.00 0.00 0.00 95 1012.5
20260506134911 67 331 5.2 13.9 0.00 0.00 0.00 94 1012.6
20260506134410 68 22 6.1 13.9 0.00 0.00 0.00 94 1012.3
20260506134134 70 350 4.3 13.9 0.00 0.00 0.00 93 1012.1
20260506133410 73 294 0.9 4.3 0.00 0.00 0.00 98 1011.7
20260506132907 73 45 0.9 2.6 0.00 0.00 0.00 98 1011.6
20260506132408 73 44 0.9 2.6 0.00 0.00 0.00 98 1011.6
20260506131908 73 44 0.9 2.6 0.00 0.00 0.00 98 1011.7
20260506131406 73 45 1.7 2.6 0.00 0.00 0.00 98 1011.7
20260506130907 73 49 1.7 2.6 0.00 0.00 0.00 98 1011.5
20260506130405 73 57 0.9 2.6 0.00 0.00 0.00 98 1011.4
20260506130131 73 87 0.0 2.6 0.00 0.00 0.00 98 1011.2
20260506125406 73 87 0.0 2.6 0.00 0.00 0.00 98 1011.0
20260506125147 73 87 0.9 2.6 0.00 0.00 0.00 98 1011.1
20260506124406 73 87 0.9 2.6 0.00 0.00 0.00 98 1011.2
20260506123905 73 114 0.0 1.7 0.00 0.00 0.00 98 1011.0
20260506123406 73 169 0.0 0.0 0.00 0.00 0.00 98 1010.9
20260506122907 72 169 0.0 0.0 0.00 0.00 0.00 98 1011.0
20260506122635 72 169 0.0 0.9 0.00 0.00 0.00 97 1010.9
20260506121904 72 169 0.0 0.9 0.00 0.00 0.00 97 1010.8
20260506121417 72 169 0.0 0.9 0.00 0.00 0.00 97 1010.7
20260506120916 72 169 0.0 0.9 0.00 0.00 0.00 97 1010.7
20260506120406 73 169 0.0 0.9 0.00 0.00 0.00 97 1010.7
20260506120123 73 169 0.0 2.6 0.00 0.00 0.00 97 1010.6
20260506115404 73 169 0.9 2.6 0.00 0.00 0.00 97 1010.6
20260506115123 73 169 0.9 3.5 0.00 0.00 0.00 97 1010.6
20260506114653 73 169 0.9 3.5 0.00 0.00 0.00 97 1010.6
20260506113900 73 169 0.9 3.5 0.00 0.00 0.00 97 1010.5
20260506113400 73 173 0.9 1.7 0.00 0.00 0.00 97 1010.6
20260506112858 73 173 1.7 4.3 0.00 0.00 0.00 97 1010.6
20260506112356 73 173 1.7 4.3 0.00 0.00 0.00 97 1010.6
20260506112332 73 179 1.7 5.2 0.00 0.00 0.00 97 1010.7
20260506111354 74 172 1.7 5.2 0.00 0.00 0.00 97 1010.9
20260506110847 74 166 1.7 3.5 0.00 0.00 0.00 97 1010.9
20260506110348 74 194 0.9 2.6 0.00 0.00 0.00 97 1011.0
20260506105848 74 195 0.0 2.6 0.00 0.00 0.00 97 1011.1
20260506105347 74 195 0.0 2.6 0.00 0.00 0.00 96 1011.1
20260506104845 74 195 0.9 2.6 0.00 0.00 0.00 96 1011.0
20260506104346 74 195 0.9 2.6 0.00 0.00 0.00 97 1011.0
20260506103844 74 194 0.9 2.6 0.00 0.00 0.00 96 1010.9
20260506103341 74 194 1.7 3.5 0.00 0.00 0.00 96 1011.0
20260506102842 74 178 0.9 3.5 0.00 0.00 0.00 96 1010.9
20260506102341 74 162 0.9 4.3 0.00 0.00 0.00 96 1010.9
20260506101841 74 160 0.9 4.3 0.00 0.00 0.00 95 1010.8
20260506101339 74 157 0.9 4.3 0.00 0.00 0.00 95 1010.7
20260506101106 74 156 1.7 4.3 0.00 0.00 0.00 95 1010.7
20260506100337 74 149 1.7 5.2 0.00 0.00 0.00 95 1010.5
20260506095838 74 182 1.7 5.2 0.00 0.00 0.00 95 1010.4
20260506095338 74 158 1.7 4.3 0.00 0.00 0.00 95 1010.5
20260506094837 74 157 1.7 4.3 0.00 0.00 0.00 95 1010.4
20260506094338 74 156 1.7 4.3 0.00 0.00 0.00 94 1010.4
20260506093837 74 144 1.7 4.3 0.00 0.00 0.00 94 1010.4
20260506093338 74 150 2.6 4.3 0.00 0.00 0.00 94 1010.3
20260506092838 74 167 2.6 4.3 0.00 0.00 0.00 94 1010.3
20260506092338 74 166 2.6 4.3 0.00 0.00 0.00 94 1010.1
20260506091837 75 159 2.6 7.0 0.00 0.00 0.00 93 1009.9
20260506091605 75 168 2.6 7.0 0.00 0.00 0.00 93 1010.0
20260506091102 75 172 2.6 7.0 0.00 0.00 0.00 93 1009.9
20260506090338 75 209 2.6 7.0 0.00 0.00 0.00 93 1009.8
20260506085837 75 155 2.6 7.0 0.00 0.00 0.00 93 1009.8
20260506085338 75 163 3.5 7.8 0.00 0.00 0.00 93 1009.6
20260506084837 75 155 4.3 10.4 0.00 0.00 0.00 93 1009.4
20260506084815 75 175 4.3 10.4 0.00 0.00 0.00 93 1009.4
20260506083838 75 171 4.3 9.6 0.00 0.00 0.00 93 1009.4
20260506083337 75 191 4.3 7.8 0.00 0.00 0.00 93 1009.6
20260506082835 75 148 4.3 11.3 0.00 0.00 0.00 93 1009.8
20260506082335 75 206 4.3 11.3 0.00 0.00 0.00 93 1009.6
20260506081835 75 201 4.3 8.7 0.00 0.00 0.00 93 1009.6
20260506081333 75 198 4.3 11.3 0.00 0.00 0.00 93 1009.5
20260506080832 75 190 5.2 12.2 0.00 0.00 0.00 93 1009.5
20260506080332 75 175 5.2 12.2 0.00 0.00 0.00 92 1009.5
20260506073326 75 199 4.3 13.9 0.00 0.00 0.00 93 1009.9
20260506072823 75 169 4.3 13.9 0.00 0.00 0.00 93 1009.9
20260506072322 75 186 5.2 13.9 0.00 0.00 0.00 93 1010.1
20260506071819 75 159 6.1 15.6 0.00 0.00 0.00 93 1010.0
20260506071807 75 159 6.1 15.6 0.00 0.00 0.00 93 1010.0
20260506070820 75 169 7.0 16.5 0.00 0.00 0.00 93 1010.0
20260506070316 75 191 6.1 16.5 0.00 0.00 0.00 93 1010.0
20260506062309 75 161 6.1 12.2 0.00 0.00 0.00 93 1009.6
20260506061809 75 174 6.1 12.2 0.00 0.00 0.00 93 1009.5
20260506061308 75 176 6.1 12.2 0.00 0.00 0.00 93 1009.5
20260506061254 75 171 6.1 14.8 0.00 0.00 0.00 93 1009.5
20260506060528 75 137 6.1 14.8 0.00 0.00 0.00 93 1009.4
20260506051254 75 166 6.1 14.8 0.00 0.00 0.00 93 1009.6
20260506050755 76 165 5.2 14.8 0.00 0.00 0.00 93 1009.8
20260506050255 75 173 4.3 9.6 0.00 0.00 0.00 93 1009.9
20260506044752 75 201 4.3 10.4 0.00 0.00 0.00 92 1009.5
20260506044252 75 190 4.3 12.2 0.00 0.00 0.00 92 1009.5
20260506043752 76 184 4.3 12.2 0.00 0.00 0.00 92 1009.6
20260506043252 76 197 4.3 9.6 0.00 0.00 0.00 92 1009.5
20260506043017 76 167 5.2 10.4 0.00 0.00 0.00 92 1009.6
20260506042531 76 160 5.2 10.4 0.00 0.00 0.00 92 1009.8
20260506042029 76 131 5.2 9.6 0.00 0.00 0.00 91 1009.3
20260506042003 76 157 5.2 9.6 0.00 0.00 0.00 91 1009.5
20260506040745 76 138 4.3 9.6 0.00 0.00 0.00 91 1009.4
20260506040242 76 198 4.3 9.6 0.00 0.00 0.00 91 1009.3
20260506035739 76 194 4.3 9.6 0.00 0.00 0.00 91 1009.3
20260506035239 76 165 4.3 8.7 0.00 0.00 0.00 90 1009.1
20260506034740 76 167 2.6 6.1 0.00 0.00 0.00 90 1009.3
20260506034240 76 155 2.6 6.1 0.00 0.00 0.00 89 1009.3
20260506033739 76 150 2.6 6.1 0.00 0.00 0.00 89 1009.1
20260506033238 76 155 2.6 7.8 0.00 0.00 0.00 89 1009.1
20260506032737 76 184 2.6 7.8 0.00 0.00 0.00 89 1009.0
20260506032459 77 155 2.6 8.7 0.00 0.00 0.00 88 1009.1
20260506031735 77 169 2.6 8.7 0.00 0.00 0.00 88 1009.0
20260506031233 77 175 3.5 7.0 0.00 0.00 0.00 88 1009.0
20260506030734 77 165 3.5 7.0 0.00 0.00 0.00 88 1008.9
20260506030233 77 155 3.5 8.7 0.00 0.00 0.00 88 1008.8
20260506025734 77 169 3.5 8.7 0.00 0.00 0.00 88 1008.8
20260506025233 77 161 3.5 6.1 0.00 0.00 0.00 88 1008.7
20260506025000 77 186 3.5 6.1 0.00 0.00 0.00 87 1008.7
20260506024234 77 165 3.5 6.1 0.00 0.00 0.00 87 1008.7
20260506023736 77 147 3.5 7.0 0.00 0.00 0.00 87 1008.6
20260506023506 78 178 3.5 7.0 0.00 0.00 0.00 87 1008.4
20260506022734 78 150 3.5 7.0 0.00 0.00 0.00 87 1008.4
20260506022234 78 160 3.5 7.0 0.00 0.00 0.00 87 1008.4
20260506021733 78 156 3.5 7.0 0.00 0.00 0.00 86 1008.3
20260506021231 78 134 2.6 7.0 0.00 0.00 0.00 86 1008.1
20260506020729 78 176 2.6 6.1 0.00 0.00 0.00 86 1008.2
20260506020228 78 154 2.6 6.1 0.00 0.00 0.00 85 1008.1
20260506015726 78 153 2.6 5.2 0.00 0.00 0.00 85 1008.1
20260506015225 78 152 1.7 5.2 0.00 0.00 0.00 84 1008.0
20260506014723 78 155 1.7 5.2 0.00 0.00 0.00 84 1007.9
20260506014225 79 163 2.6 6.1 0.00 0.00 0.00 84 1008.0
20260506013723 79 165 3.5 7.0 0.00 0.00 0.00 83 1007.8
20260506013224 79 146 3.5 7.8 0.00 0.00 0.00 83 1007.7
20260506013215 79 164 3.5 7.8 0.00 0.00 0.00 83 1007.7
20260506012221 79 150 3.5 8.7 0.00 0.00 0.00 82 1007.6
20260506011721 80 168 3.5 8.7 0.00 0.00 0.00 82 1007.6
20260506011442 80 163 4.3 9.6 0.00 0.00 0.00 82 1007.5
20260506010947 80 158 4.3 9.6 0.00 0.00 0.00 81 1007.5
20260506010213 80 159 3.5 9.6 0.00 0.00 0.00 81 1007.4
20260506005713 80 168 3.5 9.6 0.00 0.00 0.00 80 1007.4
20260506005213 81 155 4.3 8.7 0.00 0.00 0.00 80 1007.4
20260506004713 81 211 4.3 10.4 0.00 0.00 0.00 80 1007.4
20260506004213 81 136 4.3 12.2 0.00 0.00 0.00 79 1007.5
20260506003713 81 163 4.3 12.2 0.00 0.00 0.00 79 1007.5
20260506003449 82 144 5.2 12.2 0.00 0.00 0.00 79 1007.6
20260506002937 82 163 6.1 12.2 0.00 0.00 0.00 78 1007.6
20260506002211 82 0 4.3 10.4 0.00 0.00 0.00 78 1007.5
20260506001942 82 158 3.5 8.7 0.00 0.00 0.00 79 1007.6
20260506001208 82 193 4.3 11.3 0.00 0.00 0.00 79 1007.6
20260506000706 82 140 4.3 11.3 0.00 0.00 0.00 78 1007.6
20260506000440 82 180 5.2 12.2 0.00 0.00 0.00 79 1007.6
20260505235707 82 160 5.2 12.2 0.00 0.00 0.00 78 1007.6
20260505235205 82 156 4.3 10.4 0.00 0.00 0.00 77 1007.7
20260505234706 83 157 3.5 9.6 0.00 0.00 0.00 77 1007.6
20260505234205 83 155 4.3 9.6 0.00 0.00 0.00 77 1007.5
20260505233703 83 175 4.3 10.4 0.00 0.00 0.00 77 1007.5
20260505233157 83 197 6.1 13.0 0.00 0.00 0.00 76 1007.4
20260505232926 83 155 5.2 13.0 0.00 0.00 0.00 76 1007.4
20260505232144 83 155 5.2 10.4 0.00 0.00 0.00 76 1007.4
20260505231639 83 159 5.2 10.4 0.00 0.00 0.00 76 1007.3
20260505231134 83 186 5.2 11.3 0.00 0.00 0.00 76 1007.2
20260505230902 83 211 4.3 11.3 0.00 0.00 0.00 76 1007.3
20260505230402 83 160 5.2 10.4 0.00 0.00 0.00 76 1007.2
20260505225635 84 206 6.1 10.4 0.00 0.00 0.00 75 1007.2
20260505225135 84 176 5.2 10.4 0.00 0.00 0.00 75 1007.1
20260505224634 84 151 5.2 10.4 0.00 0.00 0.00 75 1007.1
20260505224135 84 170 5.2 10.4 0.00 0.00 0.00 75 1007.1
20260505223900 85 120 5.2 10.4 0.00 0.00 0.00 74 1007.1
20260505223136 85 201 5.2 10.4 0.00 0.00 0.00 74 1007.2
20260505222634 85 164 5.2 11.3 0.00 0.00 0.00 74 1007.1